[[{"header":{"parameterUnit":"m.s-1","parameterCategory":2,"la1":30.2992,"la2":30.254,"lo1":-89.0895,"lo2":-89.0443,"dy":0.0025,"dx":0.0025,"nx":19,"ny":19,"refTime":"2026-04-20T03:00:00:Z","depth":"0","parameterNumber":2,"parameterNumberName":"U-component_of_CURRENTS"},"data":[0,0,0,0.0189,0.0189,0.021,0.021,0.0235,0.0236,0,0,0,0,0,0,0,0,0,0,0,0.0183,0.0183,0.0189,0.0189,0.021,0.021,0.0235,0.0236,0,0,0,0,0,0,0,0,0,0,0,0.0183,0.0183,0.0183,0.019,0.021,0.021,0.0235,0.0221,0,0,0,0,0,0,0,0,0,0,0.0201,0.0195,0.0183,0.0183,0.019,0.021,0.021,0.022,0.0222,0.0225,0,0.0227,0,0.023,0.0237,0.0237,0,0,0,0.0193,0.0193,0.0198,0.0183,0.019,0.021,0.0202,0.0221,0.0223,0.0227,0.0227,0.0228,0.0231,0.0237,0.0237,0.0229,0.0229,0,0,0.0192,0.0188,0.0197,0.0199,0.0194,0.0201,0.0202,0.0222,0.0224,0.0227,0.0229,0.0231,0.0237,0.0237,0.0229,0.0229,0,0,0,0.0186,0.0187,0.0192,0.0198,0.0201,0.0201,0.0203,0.0223,0.0224,0.0229,0.0231,0.0237,0.0238,0.0229,0.0229,0.0228,0,0,0,0.0186,0.0184,0.0191,0.0189,0.02,0.0212,0.0203,0.0223,0.0225,0.0231,0.0237,0.0238,0.023,0.0229,0.0229,0.0276,0,0,0,0.0182,0.0183,0.0185,0.0189,0.0196,0.0212,0.0215,0.0224,0.0226,0.0237,0.0238,0.023,0.0229,0.0229,0.0275,0.0378,0,0,0,0.0179,0.017,0.0185,0.0172,0.0196,0.0185,0.0215,0.0212,0.0217,0.0237,0.023,0.0229,0.0229,0.0275,0.0376,0.0594,0.0621,0,0,0.0162,0.0168,0.0158,0.0172,0.0162,0.0183,0.0176,0.0199,0.021,0.0224,0.0224,0.0228,0.0275,0.0378,0.0559,0.0589,0,0,0,0.0148,0.0148,0.0144,0.0145,0.0143,0.0168,0.0173,0.0182,0.0201,0.0211,0.0217,0.0247,0.0312,0.0437,0.046,0.0662,0.0226,0.0226,0.0226,0.014,0.0137,0.0133,0.0135,0.0134,0.015,0.0171,0.0189,0.018,0.0185,0.0235,0.0302,0.043,0.0451,0.0653,0.0197,0.0197,0.0197,0.0197,0.014,0.0151,0.0149,0.0149,0.0167,0.0172,0.0192,0.0199,0.0265,0.022,0.0283,0.0415,0.0476,0.0683,0.0197,0.0197,0.0197,0.0197,0.0197,0.0163,0.0171,0.0171,0.0189,0.0212,0.0221,0.0299,0.0298,0.0311,0.0351,0.0559,0.0562,0.0764,0.0402,0.0403,0.0404,0.0404,0.0405,0.0405,0.0202,0.0199,0.0225,0.0238,0.0262,0.031,0.0381,0.0456,0.0597,0.0624,0.0626,0.083,0.0367,0.0381,0.0415,0.0413,0.0412,0.0411,0.041,0.0243,0.0248,0.0288,0.0311,0.0357,0.0432,0.0506,0.0765,0.0866,0.0989,0.1204,0.0785,0.0837,0.082,0.0847,0.0999,0.0999,0.0999,0.0999,0.0281,0.0281,0.0344,0.0383,0.0433,0.0485,0.0739,0.0998,0.1356,0.1567,0.1556,0.155,0.1517,0.1605,0.1571,0.1611,0.1954,0.1955,0.1956,0.0314,0.0332,0.0383,0.041,0.0455,0.0551,0.0814,0.1209,0.1785,0.2005,0.1797,0.1757,0.1745,0.1677,0.1802,0.1738,0.1796,0,0]},{"header":{"parameterUnit":"m.s-1","parameterCategory":2,"la1":30.2992,"la2":30.254,"lo1":-89.0895,"lo2":-89.0443,"dy":0.0025,"dx":0.0025,"nx":19,"ny":19,"refTime":"2026-04-20T03:00:00:Z","depth":"0","parameterNumber":3,"parameterNumberName":"V-component_of_CURRENTS"},"data":[0,0,0,-0.0405,-0.0406,-0.0434,-0.0435,-0.0482,-0.0483,0,0,0,0,0,0,0,0,0,0,0,-0.0394,-0.0394,-0.0405,-0.0406,-0.0434,-0.0435,-0.0482,-0.0483,0,0,0,0,0,0,0,0,0,0,0,-0.0394,-0.0394,-0.0394,-0.0406,-0.0434,-0.0435,-0.0482,-0.0458,0,0,0,0,0,0,0,0,0,0,-0.0429,-0.0416,-0.0394,-0.0394,-0.0406,-0.0434,-0.0435,-0.0457,-0.0459,-0.0473,0,-0.0476,0,-0.0482,-0.0486,-0.0486,0,0,0,-0.0406,-0.0414,-0.0422,-0.0394,-0.0407,-0.0434,-0.0422,-0.0458,-0.0461,-0.0477,-0.0477,-0.0479,-0.0483,-0.0487,-0.0487,-0.0553,-0.0554,0,0,-0.0405,-0.0399,-0.042,-0.0424,-0.0414,-0.0421,-0.0423,-0.046,-0.0463,-0.0477,-0.048,-0.0484,-0.0487,-0.0487,-0.0553,-0.0554,0,0,0,-0.04,-0.0398,-0.0406,-0.0422,-0.0427,-0.0422,-0.0424,-0.0461,-0.0464,-0.0481,-0.0484,-0.0487,-0.0488,-0.0553,-0.0553,-0.0543,0,0,0,-0.0399,-0.0395,-0.0405,-0.0402,-0.0427,-0.0443,-0.0424,-0.0461,-0.0466,-0.0484,-0.0487,-0.0488,-0.0552,-0.0553,-0.0543,-0.0488,0,0,0,-0.0393,-0.0395,-0.0398,-0.0402,-0.0414,-0.0443,-0.0447,-0.0462,-0.0468,-0.0487,-0.0489,-0.0552,-0.0553,-0.0542,-0.0489,-0.0413,0,0,0,-0.0386,-0.0395,-0.0398,-0.0412,-0.0414,-0.0444,-0.0447,-0.0471,-0.0487,-0.0488,-0.0552,-0.0553,-0.0542,-0.0489,-0.0415,-0.0192,-0.0165,0,0,-0.0394,-0.0396,-0.0405,-0.0409,-0.0429,-0.044,-0.0471,-0.0491,-0.0505,-0.054,-0.0542,-0.0543,-0.0489,-0.0413,-0.024,-0.0211,0,0,0,-0.0406,-0.0409,-0.0418,-0.043,-0.0451,-0.0458,-0.0493,-0.051,-0.0539,-0.0519,-0.0562,-0.0528,-0.048,-0.0351,-0.033,-0.0392,-0.0557,-0.0557,-0.0557,-0.0398,-0.0411,-0.042,-0.0438,-0.0453,-0.0482,-0.0491,-0.052,-0.0555,-0.0571,-0.0537,-0.0489,-0.0357,-0.0337,-0.0408,-0.0583,-0.0583,-0.0583,-0.0583,-0.0393,-0.0388,-0.0406,-0.0417,-0.043,-0.0453,-0.0487,-0.0508,-0.0501,-0.0552,-0.0507,-0.0368,-0.0311,-0.0396,-0.0582,-0.0583,-0.0583,-0.0583,-0.0583,-0.0371,-0.0367,-0.038,-0.0381,-0.0381,-0.0408,-0.0341,-0.0402,-0.0447,-0.0423,-0.0239,-0.0236,-0.0288,-0.0393,-0.0392,-0.0391,-0.0391,-0.0391,-0.039,-0.0331,-0.0344,-0.0327,-0.0334,-0.0314,-0.0273,-0.0246,-0.0193,-0.0138,-0.0165,-0.0163,-0.0267,-0.0429,-0.0411,-0.0382,-0.0383,-0.0384,-0.0385,-0.0386,-0.0285,-0.0293,-0.0259,-0.0238,-0.0171,-0.001,-0.0001,0.0212,0.0227,0.0309,0.0069,-0.002,0.0023,0.0007,0.0037,0.018,0.018,0.018,0.018,-0.0242,-0.0248,-0.018,-0.0119,-0.0011,0.0112,0.048,0.0634,0.0537,0.0437,0.0257,0.0217,0.0197,0.0244,0.0222,0.0252,0.0447,0.0447,0.0446,-0.0195,-0.0184,-0.0113,-0.0065,0.0062,0.0315,0.0732,0.101,0.0755,0.0436,0.0118,0.0107,0.0015,-0.001,0.0031,0.0006,0.0045,0,0]}],[{"header":{"parameterUnit":"m.s-1","parameterCategory":2,"la1":30.2992,"la2":30.254,"lo1":-89.0895,"lo2":-89.0443,"dy":0.0025,"dx":0.0025,"nx":19,"ny":19,"refTime":"2026-04-20T03:00:00:Z","depth":"2","parameterNumber":2,"parameterNumberName":"U-component_of_CURRENTS"},"data":[0,0,0,0.039,0.0391,0.0412,0.0412,0.0431,0.0431,0,0,0,0,0,0,0,0,0,0,0,0.0383,0.0383,0.039,0.0391,0.0411,0.0412,0.0431,0.0431,0,0,0,0,0,0,0,0,0,0,0,0.0383,0.0383,0.0383,0.0391,0.0411,0.0412,0.0431,0.0417,0,0,0,0,0,0,0,0,0,0,0.0398,0.039,0.0383,0.0383,0.0391,0.0411,0.0412,0.0417,0.0418,0.042,0,0.0423,0,0.0428,0.0432,0.0432,0,0,0,0.0391,0.0389,0.0397,0.0383,0.0391,0.0411,0.0402,0.0418,0.0419,0.0422,0.0424,0.0424,0.0428,0.0433,0.0433,0.0433,0.0433,0,0,0.039,0.0385,0.0396,0.0398,0.0397,0.0402,0.0403,0.0419,0.0419,0.0424,0.0425,0.0428,0.0433,0.0433,0.0433,0.0433,0,0,0,0.0387,0.0384,0.0391,0.0397,0.0401,0.0402,0.0404,0.0418,0.0421,0.0425,0.0428,0.0433,0.0433,0.0433,0.0433,0.0443,0,0,0,0.0386,0.0382,0.0391,0.0388,0.0401,0.041,0.0403,0.042,0.0422,0.0428,0.0433,0.0433,0.0433,0.0433,0.0443,0.0472,0,0,0,0.0382,0.0382,0.0385,0.0388,0.0397,0.041,0.0414,0.0421,0.0424,0.0432,0.0433,0.0433,0.0433,0.0443,0.0472,0.0569,0,0,0,0.0375,0.0371,0.0385,0.0378,0.0396,0.0393,0.0414,0.0413,0.0417,0.0433,0.0433,0.0433,0.0443,0.0471,0.0567,0.0808,0.0837,0,0,0.0364,0.037,0.0365,0.0377,0.038,0.0391,0.0396,0.0412,0.0415,0.0428,0.0428,0.0443,0.0471,0.0568,0.0791,0.0822,0,0,0,0.0357,0.0358,0.0359,0.0366,0.0368,0.0391,0.0397,0.0407,0.0423,0.0417,0.0434,0.0452,0.0514,0.0654,0.0677,0.0432,0.0432,0.0432,0.0432,0.0347,0.035,0.0354,0.0364,0.0367,0.0387,0.0406,0.0422,0.0415,0.0422,0.0452,0.0523,0.0669,0.069,0.043,0.043,0.043,0.043,0.043,0.0349,0.0361,0.0366,0.0373,0.0393,0.0402,0.043,0.0438,0.05,0.0457,0.0516,0.0646,0.0717,0.0431,0.043,0.043,0.043,0.043,0.043,0.0364,0.0373,0.0375,0.0398,0.0421,0.0437,0.0514,0.0516,0.0534,0.057,0.0787,0.079,0.058,0.0621,0.0622,0.0622,0.0623,0.0623,0.0623,0.0389,0.0392,0.0416,0.0433,0.0456,0.0506,0.0577,0.0656,0.0808,0.0847,0.085,0.0589,0.0583,0.0593,0.0632,0.063,0.0629,0.0628,0.0628,0.042,0.0425,0.0465,0.0489,0.0546,0.0658,0.0719,0.1,0.109,0.1227,0.103,0.1017,0.1061,0.1044,0.1065,0.1225,0.1225,0.1225,0.1225,0.0448,0.045,0.0514,0.0562,0.0633,0.0725,0.102,0.1217,0.1341,0.1351,0.1343,0.1311,0.1288,0.1338,0.1314,0.1338,0.1568,0.1568,0.1568,0.0475,0.0494,0.0546,0.0589,0.0666,0.0834,0.1144,0.1368,0.1486,0.1562,0.1206,0.1286,0.122,0.119,0.1249,0.1217,0.1248,0,0]},{"header":{"parameterUnit":"m.s-1","parameterCategory":2,"la1":30.2992,"la2":30.254,"lo1":-89.0895,"lo2":-89.0443,"dy":0.0025,"dx":0.0025,"nx":19,"ny":19,"refTime":"2026-04-20T03:00:00:Z","depth":"2","parameterNumber":3,"parameterNumberName":"V-component_of_CURRENTS"},"data":[0,0,0,-0.0349,-0.0349,-0.0384,-0.0384,-0.0432,-0.0433,0,0,0,0,0,0,0,0,0,0,0,-0.0335,-0.0336,-0.0348,-0.0349,-0.0384,-0.0384,-0.0432,-0.0433,0,0,0,0,0,0,0,0,0,0,0,-0.0335,-0.0336,-0.0336,-0.0349,-0.0384,-0.0384,-0.0432,-0.0405,0,0,0,0,0,0,0,0,0,0,-0.0371,-0.0358,-0.0336,-0.0336,-0.035,-0.0384,-0.0384,-0.0404,-0.0407,-0.0418,0,-0.0423,0,-0.043,-0.0436,-0.0436,0,0,0,-0.0349,-0.0355,-0.0365,-0.0336,-0.035,-0.0384,-0.0368,-0.0405,-0.0409,-0.0422,-0.0424,-0.0426,-0.0431,-0.0436,-0.0437,-0.049,-0.049,0,0,-0.0348,-0.0342,-0.0363,-0.0368,-0.0359,-0.0367,-0.0369,-0.0407,-0.0411,-0.0424,-0.0427,-0.0432,-0.0437,-0.0437,-0.049,-0.049,0,0,0,-0.0342,-0.0341,-0.0349,-0.0366,-0.0372,-0.0368,-0.0371,-0.0409,-0.0412,-0.0427,-0.0432,-0.0437,-0.0438,-0.049,-0.049,-0.0465,0,0,0,-0.0341,-0.0337,-0.0349,-0.0346,-0.0371,-0.0391,-0.0372,-0.041,-0.0414,-0.0432,-0.0437,-0.0438,-0.049,-0.049,-0.0465,-0.0426,0,0,0,-0.0334,-0.0337,-0.0341,-0.0345,-0.036,-0.039,-0.0395,-0.0411,-0.0417,-0.0436,-0.0438,-0.0489,-0.049,-0.0466,-0.0428,-0.0368,0,0,0,-0.0327,-0.0333,-0.0341,-0.0352,-0.036,-0.0386,-0.0395,-0.0419,-0.0435,-0.0437,-0.049,-0.049,-0.0466,-0.0429,-0.037,-0.0266,-0.025,0,0,-0.033,-0.0334,-0.0341,-0.0348,-0.0358,-0.0381,-0.0398,-0.0424,-0.0447,-0.0477,-0.0478,-0.0465,-0.0428,-0.0369,-0.0297,-0.0279,0,0,0,-0.0339,-0.0341,-0.0347,-0.0355,-0.0375,-0.0381,-0.0416,-0.0432,-0.0461,-0.0459,-0.0483,-0.046,-0.0423,-0.0365,-0.0352,-0.0493,-0.0493,-0.0492,-0.0492,-0.0326,-0.0336,-0.0339,-0.0351,-0.0365,-0.039,-0.0398,-0.0428,-0.0461,-0.0475,-0.0454,-0.0409,-0.0351,-0.0339,-0.0486,-0.0486,-0.0486,-0.0486,-0.0486,-0.0316,-0.0312,-0.0322,-0.0329,-0.0337,-0.0354,-0.0382,-0.0402,-0.0402,-0.0449,-0.0415,-0.036,-0.0322,-0.0484,-0.0484,-0.0484,-0.0485,-0.0485,-0.0485,-0.0298,-0.0294,-0.0304,-0.03,-0.0297,-0.0317,-0.0265,-0.0316,-0.0357,-0.0339,-0.0252,-0.0252,-0.0352,-0.0317,-0.0316,-0.0316,-0.0316,-0.0315,-0.0315,-0.0267,-0.0275,-0.0262,-0.0264,-0.0248,-0.0217,-0.0195,-0.0156,-0.0146,-0.0193,-0.0192,-0.0351,-0.0356,-0.0342,-0.0309,-0.031,-0.0311,-0.0311,-0.0312,-0.0233,-0.024,-0.0212,-0.0196,-0.0142,-0.0036,-0.0024,0.0098,0.0109,0.0142,-0.0103,-0.011,-0.0093,-0.0104,-0.0084,0.0015,0.0015,0.0015,0.0015,-0.0203,-0.0207,-0.0155,-0.0107,-0.0028,0.005,0.0247,0.0228,0.0153,0.0039,0.0037,-0.0008,-0.002,-0.0003,-0.0017,0.0002,0.0124,0.0124,0.0123,-0.017,-0.0161,-0.0109,-0.007,0.0022,0.0183,0.0353,0.0339,0.021,0.0118,-0.0047,0.0043,-0.003,-0.0047,-0.0029,-0.0047,-0.002,0,0]}],[{"header":{"parameterUnit":"m.s-1","parameterCategory":2,"la1":30.2992,"la2":30.254,"lo1":-89.0895,"lo2":-89.0443,"dy":0.0025,"dx":0.0025,"nx":19,"ny":19,"refTime":"2026-04-20T03:00:00:Z","depth":"4","parameterNumber":2,"parameterNumberName":"U-component_of_CURRENTS"},"data":[0,0,0,0.0609,0.0611,0.0694,0.0695,0.0734,0.0734,0,0,0,0,0,0,0,0,0,0,0,0.0581,0.0582,0.0609,0.0611,0.0694,0.0695,0.0734,0.0734,0,0,0,0,0,0,0,0,0,0,0,0.058,0.0581,0.0582,0.0612,0.0694,0.0695,0.0734,0.0685,0,0,0,0,0,0,0,0,0,0,0.0611,0.0598,0.0581,0.0582,0.0612,0.0694,0.0695,0.0683,0.0688,0.0681,0,0.0709,0,0.0728,0.0737,0.0737,0,0,0,0.0598,0.0594,0.0621,0.0583,0.0613,0.0694,0.0653,0.0686,0.0691,0.0687,0.071,0.0712,0.0728,0.0737,0.0737,0.0819,0.0819,0,0,0.0594,0.0587,0.0617,0.0625,0.0653,0.0651,0.0656,0.069,0.0699,0.071,0.0713,0.0729,0.0737,0.0737,0.0818,0.0819,0,0,0,0.0589,0.0583,0.0611,0.0622,0.0646,0.0653,0.0659,0.0697,0.0709,0.0714,0.0729,0.0737,0.0738,0.0817,0.0818,0.0829,0,0,0,0.0586,0.0582,0.0609,0.0604,0.0646,0.0682,0.0666,0.0706,0.0711,0.0729,0.0737,0.0738,0.0817,0.0818,0.0828,0.081,0,0,0,0.0573,0.058,0.0597,0.0604,0.0646,0.0682,0.0695,0.0708,0.072,0.0737,0.0738,0.0816,0.0818,0.0826,0.0808,0.088,0,0,0,0.0552,0.0583,0.0597,0.0641,0.0646,0.0714,0.0695,0.0733,0.075,0.0737,0.0817,0.0818,0.0825,0.0807,0.0878,0.0798,0,0,0,0.0574,0.0585,0.0612,0.0627,0.0691,0.0701,0.076,0.0765,0.077,0.0797,0.0799,0.0828,0.0808,0.088,0.0888,0,0,0,0,0.0608,0.0627,0.0652,0.0695,0.0743,0.0771,0.0796,0.0812,0.0838,0.0792,0.0856,0.0843,0.0888,0.0837,0.0826,0.0826,0.0825,0.0825,0.0825,0.0599,0.0636,0.0678,0.0728,0.0769,0.0823,0.085,0.0875,0.0877,0.0898,0.0874,0.096,0.0908,0.0911,0.0911,0.0911,0.0911,0.0911,0.0911,0.0612,0.0628,0.0677,0.0721,0.0765,0.0804,0.0878,0.0892,0.0955,0.0926,0.0971,0.0877,0.0913,0.0913,0.0913,0.0912,0.0912,0.0912,0.0912,0.0581,0.0593,0.0623,0.068,0.0719,0.0775,0.0849,0.0896,0.0949,0.0982,0.097,0.0986,0.0962,0.1023,0.1023,0.1023,0.1024,0.1024,0.1024,0.0522,0.0561,0.0586,0.0641,0.0669,0.0726,0.0837,0.0903,0.0968,0.097,0.0992,0.0998,0.0995,0.0971,0.1028,0.1027,0.1027,0.1026,0.1026,0.0495,0.0505,0.0552,0.0583,0.0669,0.0714,0.082,0.0925,0.1008,0.1031,0.0993,0.0993,0.0988,0.0985,0.096,0.1016,0.1015,0.1014,0,0.0461,0.0474,0.0541,0.0601,0.0667,0.0724,0.0818,0.0903,0.096,0.0931,0.1013,0.0967,0.0967,0.0957,0.0953,0.0921,0,0,0,0.0451,0.0476,0.0521,0.0593,0.0667,0.076,0.0846,0.0868,0.0929,0.0978,0.0994,0.0999,0.1018,0.104,0.1033,0.1029,0.0991,0,0]},{"header":{"parameterUnit":"m.s-1","parameterCategory":2,"la1":30.2992,"la2":30.254,"lo1":-89.0895,"lo2":-89.0443,"dy":0.0025,"dx":0.0025,"nx":19,"ny":19,"refTime":"2026-04-20T03:00:00:Z","depth":"4","parameterNumber":3,"parameterNumberName":"V-component_of_CURRENTS"},"data":[0,0,0,-0.0028,-0.0029,-0.0089,-0.009,-0.0105,-0.0105,0,0,0,0,0,0,0,0,0,0,0,-0.0011,-0.0012,-0.0028,-0.0029,-0.0089,-0.009,-0.0105,-0.0105,0,0,0,0,0,0,0,0,0,0,0,-0.0011,-0.0012,-0.0013,-0.003,-0.0089,-0.009,-0.0105,-0.0075,0,0,0,0,0,0,0,0,0,0,-0.0024,-0.0023,-0.0012,-0.0013,-0.003,-0.0089,-0.009,-0.0074,-0.0077,-0.0061,0,-0.0077,0,-0.0089,-0.0105,-0.0105,0,0,0,-0.0029,-0.0022,-0.0032,-0.0013,-0.0031,-0.0089,-0.0062,-0.0076,-0.0079,-0.0064,-0.0078,-0.0079,-0.0089,-0.0105,-0.0105,-0.003,-0.003,0,0,-0.0026,-0.0025,-0.003,-0.0034,-0.0054,-0.006,-0.0064,-0.0079,-0.0087,-0.0078,-0.0079,-0.0089,-0.0105,-0.0105,-0.0031,-0.003,0,0,0,-0.0016,-0.0023,-0.0034,-0.0033,-0.0047,-0.0062,-0.0066,-0.0087,-0.0089,-0.008,-0.0089,-0.0105,-0.0105,-0.0032,-0.0031,-0.0006,0,0,0,-0.0014,-0.0017,-0.0033,-0.0033,-0.0047,-0.0077,-0.0074,-0.0088,-0.0091,-0.0089,-0.0105,-0.0105,-0.0033,-0.0031,-0.0008,-0.002,0,0,0,-0.0007,-0.0017,-0.0025,-0.0033,-0.0058,-0.0077,-0.0082,-0.009,-0.0096,-0.0105,-0.0105,-0.0033,-0.0032,-0.0011,-0.0023,-0.0035,0,0,0,-0.0002,0.0007,-0.0025,-0.001,-0.0058,-0.0028,-0.0082,-0.0082,-0.0085,-0.0105,-0.0033,-0.0031,-0.0011,-0.0025,-0.0036,-0.0074,0,0,0,0.0024,0.0009,0.0025,-0.0004,0.0033,-0.0019,0.0027,-0.002,-0.0048,-0.0026,-0.0025,-0.0007,-0.0023,-0.0035,0.0038,0,0,0,0,0.0045,0.0047,0.0057,0.006,0.0072,0.0068,0.004,0.0033,0.0019,-0.0043,0.0024,0.0013,0.0004,-0.0018,-0.0022,-0.0022,-0.0022,-0.0022,-0.0023,0.0057,0.0076,0.0099,0.0118,0.0136,0.0134,0.0133,0.0118,0.009,0.0092,0.0058,0.0096,0.008,0.0097,0.0097,0.0098,0.0098,0.0098,0.0098,0.008,0.0085,0.011,0.0128,0.0145,0.0165,0.0194,0.0169,0.0157,0.0134,0.0124,0.0041,0.0101,0.01,0.01,0.01,0.0099,0.0099,0.0099,0.006,0.0068,0.0065,0.0091,0.0111,0.0139,0.0155,0.0162,0.0151,0.0147,0.0084,0.0102,0.0069,0.012,0.012,0.012,0.012,0.012,0.012,0.0025,0.0038,0.0032,0.0054,0.0059,0.0076,0.011,0.0109,0.0108,0.0096,0.0123,0.0103,0.0102,0.0071,0.0119,0.0119,0.0119,0.0119,0.0119,0.0004,-0.0009,0.0001,-0.0,0.0032,0.0053,0.0081,0.0073,0.0064,0.0045,0.0076,0.0079,0.0053,0.0053,0.0018,0.0052,0.0052,0.0051,0,-0.0025,-0.0022,-0.0015,0.0003,0.0025,0.0055,0.0047,0.0046,0.0041,0.0044,0.0062,0.0098,0.01,0.0072,0.0071,0.0032,0,0,0,-0.0041,-0.0031,-0.0025,0.0001,0.0029,0.0043,0.0049,0.0037,0.0051,0.0017,0.0042,0.0045,0.0081,0.0115,0.008,0.0079,0.0026,0,0]}]]